[[{"header":{"parameterUnit":"m.s-1","parameterCategory":2,"la1":30.2991,"la2":30.254,"lo1":-89.0895,"lo2":-89.0444,"dy":0.0017,"dx":0.0017,"nx":28,"ny":28,"refTime":"2025-01-12T09:00:00:Z","depth":"0","parameterNumber":2,"parameterNumberName":"U-component_of_CURRENTS"},"data":[0,0,0,0,0,0,0,0,0,0,0,0,0,0,0,0,0,0,0,0,0,0,0,0,0,0,0,0,0,0,0,0,0,0,0,0,0,0,0,0,0,0,0,0,0,0,0,0,0,0,0,0,0,0,0,0,0,0,0.3626,0.3627,0,0.3632,0.3632,0.3632,0.3674,0.3675,0.3676,0.3678,0.3629,0.3627,0.3624,0,0,0,0,0,0,0,0,0,0,0,0,0,0.3698,0.3696,0.3626,0.3627,0.3627,0.3633,0.3632,0.3632,0.3674,0.3675,0.3677,0.3678,0.363,0.3627,0.3624,0,0,0,0,0,0,0,0,0,0,0,0,0,0.3678,0.3695,0.3626,0.3651,0.3653,0.3633,0.3632,0.3632,0.3673,0.3675,0.3677,0.3679,0.3631,0.3627,0.3624,0.3561,0,0,0.3612,0.361,0,0,0,0,0,0,0,0,0.3679,0.3675,0.3647,0.3649,0.3652,0.3657,0.364,0.3607,0.3673,0.3662,0.3678,0.368,0.3634,0.363,0.3623,0.3559,0.3557,0.3612,0.3609,0.3608,0.3607,0,0,0,0,0,0,0,0.3681,0.3676,0.3626,0.3647,0.365,0.3678,0.3676,0.3634,0.3634,0.3663,0.3667,0.3672,0.3635,0.3627,0.3622,0.3556,0.3612,0.3608,0.3606,0.3605,0.3507,0.3506,0,0,0,0,0,0,0.3681,0.3676,0.3626,0.3626,0.3674,0.3675,0.3673,0.3651,0.3635,0.3636,0.3671,0.3674,0.3632,0.3627,0.3621,0.3583,0.3608,0.3604,0.3602,0.3507,0.3507,0.3506,0,0,0,0,0,0,0.3682,0.3675,0.3625,0.3656,0.3652,0.3672,0.3646,0.365,0.3659,0.3642,0.3642,0.3678,0.3634,0.3626,0.3605,0.358,0.3603,0.3599,0.3508,0.3507,0.3507,0.3482,0,0,0,0,0,0,0.3683,0.3674,0.3659,0.3655,0.365,0.3606,0.3645,0.3649,0.3659,0.3664,0.3647,0.3644,0.3635,0.3611,0.3601,0.3575,0.3596,0.3508,0.3507,0.3507,0.3484,0.3481,0.3479,0,0,0,0,0,0.3685,0.3641,0.3657,0.3652,0.3627,0.3605,0.3604,0.3625,0.3658,0.3643,0.3655,0.3646,0.36,0.3607,0.3596,0.3568,0.3508,0.3508,0.3507,0.3485,0.3482,0.3479,0,0,0,0,0,0,0.3643,0.3642,0.3659,0.3612,0.3614,0.3613,0.3601,0.3626,0.3623,0.3634,0.3634,0.363,0.3609,0.3591,0.3599,0.3542,0.3554,0.3551,0.3541,0.3538,0.3535,0.3563,0.3593,0,0,0,0,0,0.3632,0.3605,0.3614,0.3572,0.3577,0.3595,0.3593,0.3609,0.3609,0.3612,0.3602,0.3596,0.3591,0.357,0.3556,0.3506,0.355,0.3485,0.3483,0.3481,0.3498,0.3565,0.3571,0.3504,0.3504,0.3504,0,0,0.36,0.3598,0.358,0.3565,0.3569,0.3553,0.3597,0.3586,0.3577,0.3601,0.3575,0.3588,0.3583,0.3548,0.3534,0.3529,0.3519,0.348,0.3478,0.3497,0.3565,0.3572,0.3578,0.3503,0.3503,0.3503,0,0,0.3516,0.3527,0.3482,0.3489,0.35,0.3517,0.3519,0.3525,0.3535,0.351,0.3549,0.3561,0.3505,0.3522,0.3519,0.3492,0.3518,0.3471,0.3459,0.3523,0.353,0.3536,0.3588,0.3599,0.3453,0.3453,0.3453,0,0.3486,0.3436,0.3464,0.3435,0.3445,0.3503,0.3476,0.3482,0.348,0.35,0.3494,0.3512,0.3499,0.3514,0.3505,0.3486,0.3528,0.3467,0.3522,0.353,0.3537,0.3588,0.3602,0.3452,0.3452,0.3452,0.3452,0,0.3374,0.3357,0.3332,0.3328,0.3336,0.3322,0.3358,0.3368,0.3397,0.3422,0.3448,0.3454,0.3479,0.3462,0.3465,0.3506,0.3522,0.3527,0.3533,0.3543,0.3595,0.361,0.345,0.345,0.3451,0.3451,0,0,0.326,0.3258,0.3254,0.3266,0.3293,0.3294,0.3294,0.3329,0.3374,0.3366,0.342,0.3405,0.3459,0.3464,0.3484,0.3519,0.359,0.3534,0.3538,0.3593,0.3732,0.365,0.3657,0.3609,0.3611,0.3613,0.3745,0,0.3176,0.3122,0.3142,0.3121,0.3118,0.3193,0.3203,0.3252,0.3304,0.3368,0.3417,0.3469,0.3444,0.3483,0.3512,0.36,0.3628,0.3554,0.371,0.3714,0.3646,0.3671,0.346,0.3551,0.3759,0.3761,0.3763,0,0.3066,0.3062,0.302,0.3077,0.3085,0.3083,0.3179,0.3196,0.331,0.3362,0.3435,0.3503,0.358,0.3558,0.3682,0.364,0.3679,0.3723,0.373,0.3677,0.3658,0.3578,0.357,0.3451,0.3785,0.3783,0.3782,0,0.2997,0.2987,0.2966,0.2977,0.3033,0.3047,0.3091,0.3192,0.3256,0.3389,0.3472,0.3564,0.3641,0.3711,0.3791,0.3754,0.3938,0.39,0.3856,0.3851,0.3714,0.3692,0.3617,0.3978,0.3978,0.3978,0.3977,0,0.2914,0.2901,0.2938,0.2931,0.2954,0.3008,0.3067,0.3136,0.327,0.3376,0.3476,0.358,0.3686,0.3801,0.3844,0.3905,0.3981,0.3872,0.3885,0.3695,0.367,0.3596,0.3569,0.3983,0.3982,0.3981,0.398,0,0.2831,0.2844,0.2841,0.2895,0.2915,0.2936,0.3051,0.3117,0.3245,0.3394,0.3451,0.3626,0.3765,0.3866,0.4005,0.3968,0.392,0.4039,0.3802,0.3782,0.3568,0.3548,0.345,0.3345,0.3995,0.3994,0.3993,0,0.2775,0.2762,0.2813,0.2831,0.285,0.2902,0.2957,0.3086,0.3172,0.3419,0.3491,0.3679,0.3789,0.3954,0.3938,0.3996,0.3898,0.3818,0.3683,0.3535,0.3525,0.3423,0.3335,0.3498,0.3493,0.3489,0.3485,0,0.2704,0.2727,0.2744,0.2784,0.2824,0.2877,0.296,0.3024,0.3207,0.3343,0.3527,0.3641,0.377,0.3719,0.3773,0.3775,0.3594,0.3732,0.3645,0.3184,0.3005,0.2915,0.3439,0.3449,0.3453,0.3455,0.3457,0.3459,0.2673,0.2677,0.2718,0.2751,0.2793,0.2842,0.2859,0.2972,0.3097,0.3254,0.3434,0.3498,0.3509,0.3529,0.3525,0.3304,0.3349,0.3148,0.3159,0.3087,0.2894,0.3331,0.3308,0.331,0.3313,0.3315,0.3317,0,0.2655,0.267,0.2693,0.2726,0.2743,0.2788,0.2859,0.2861,0.2948,0.3076,0.3199,0.3156,0.3078,0.3054,0.2886,0.2745,0.2624,0.2658,0.2453,0.2413,0.2852,0.2733,0.2501,0.2501,0.2501,0.2502,0.2502,0.2502,0.2653,0.2666,0.2675,0.2678,0.269,0.2668,0.2681,0.2691,0.272,0.2703,0.2642,0.2677,0.2705,0.2619,0.2414,0.2347,0.2173,0.2042,0.2106,0.2394,0.2439,0.2482,0.2361,0.2054,0.2054,0.1505,0.1501,0.1498]},{"header":{"parameterUnit":"m.s-1","parameterCategory":2,"la1":30.2991,"la2":30.254,"lo1":-89.0895,"lo2":-89.0444,"dy":0.0017,"dx":0.0017,"nx":28,"ny":28,"refTime":"2025-01-12T09:00:00:Z","depth":"0","parameterNumber":3,"parameterNumberName":"V-component_of_CURRENTS"},"data":[0,0,0,0,0,0,0,0,0,0,0,0,0,0,0,0,0,0,0,0,0,0,0,0,0,0,0,0,0,0,0,0,0,0,0,0,0,0,0,0,0,0,0,0,0,0,0,0,0,0,0,0,0,0,0,0,0,0,-0.0183,-0.0184,0,-0.0251,-0.0252,-0.0253,-0.0314,-0.0314,-0.0314,-0.0315,-0.0343,-0.0344,-0.0345,0,0,0,0,0,0,0,0,0,0,0,0,0,-0.0211,-0.0209,-0.0183,-0.0184,-0.0184,-0.0251,-0.0252,-0.0254,-0.0314,-0.0314,-0.0314,-0.0315,-0.0343,-0.0344,-0.0345,0,0,0,0,0,0,0,0,0,0,0,0,0,-0.0235,-0.0209,-0.0183,-0.0218,-0.0222,-0.0251,-0.0252,-0.0254,-0.0314,-0.0314,-0.0314,-0.0315,-0.0343,-0.0344,-0.0345,-0.0342,0,0,-0.0347,-0.0347,0,0,0,0,0,0,0,0,-0.0233,-0.0234,-0.0213,-0.0216,-0.022,-0.027,-0.0272,-0.028,-0.0314,-0.0284,-0.0315,-0.0315,-0.0312,-0.0315,-0.0335,-0.0343,-0.0345,-0.0347,-0.0348,-0.0348,-0.0348,0,0,0,0,0,0,0,-0.0231,-0.0232,-0.0215,-0.0213,-0.0217,-0.0266,-0.027,-0.0275,-0.0298,-0.0287,-0.029,-0.0289,-0.0314,-0.0334,-0.0336,-0.0345,-0.0347,-0.0348,-0.0348,-0.0349,-0.0313,-0.0312,0,0,0,0,0,0,-0.0207,-0.023,-0.0213,-0.0217,-0.0222,-0.0265,-0.0269,-0.0258,-0.0299,-0.0305,-0.0289,-0.0292,-0.0332,-0.0335,-0.0337,-0.0286,-0.0348,-0.0349,-0.0349,-0.0315,-0.0313,-0.0311,0,0,0,0,0,0,-0.0207,-0.0204,-0.021,-0.0222,-0.0226,-0.0262,-0.025,-0.0259,-0.0278,-0.03,-0.0306,-0.0298,-0.0333,-0.0336,-0.0335,-0.029,-0.0349,-0.035,-0.0316,-0.0314,-0.0312,-0.0217,0,0,0,0,0,0,-0.0207,-0.0204,-0.0201,-0.022,-0.0224,-0.0196,-0.025,-0.0259,-0.0274,-0.0279,-0.031,-0.0314,-0.0333,-0.0333,-0.0335,-0.0292,-0.0351,-0.0318,-0.0315,-0.0313,-0.0222,-0.0212,-0.0203,0,0,0,0,0,-0.0208,-0.0178,-0.02,-0.0199,-0.0213,-0.0193,-0.0199,-0.0233,-0.0274,-0.0258,-0.0296,-0.0313,-0.0317,-0.0333,-0.0336,-0.0291,-0.0319,-0.0316,-0.0313,-0.0226,-0.0214,-0.0203,0,0,0,0,0,0,-0.018,-0.0182,-0.0206,-0.0179,-0.0178,-0.0201,-0.0191,-0.0228,-0.0251,-0.026,-0.0303,-0.0308,-0.0287,-0.0306,-0.0323,-0.0274,-0.0317,-0.0314,-0.025,-0.0238,-0.0229,-0.0213,-0.0351,0,0,0,0,0,-0.0175,-0.0143,-0.0165,-0.0129,-0.0135,-0.0171,-0.0176,-0.0194,-0.0212,-0.0224,-0.0247,-0.0269,-0.0276,-0.0273,-0.0279,-0.0256,-0.0276,-0.0227,-0.0218,-0.021,-0.0198,-0.0204,-0.0194,-0.0301,-0.0301,-0.0301,0,0,-0.0143,-0.0143,-0.0123,-0.0121,-0.013,-0.0112,-0.0174,-0.0157,-0.0144,-0.022,-0.0207,-0.0237,-0.0265,-0.0238,-0.0229,-0.0248,-0.0187,-0.0206,-0.0198,-0.0192,-0.0199,-0.0189,-0.018,-0.0299,-0.0299,-0.0299,0,0,-0.0057,-0.0074,-0.0032,-0.0033,-0.0037,-0.0056,-0.0049,-0.0072,-0.0086,-0.0082,-0.0133,-0.0143,-0.015,-0.016,-0.0169,-0.0113,-0.0141,-0.0106,-0.0039,-0.0044,-0.0035,-0.0028,-0.0029,-0.0022,-0.0097,-0.0096,-0.0096,0,-0.0028,0.0012,-0.0012,0.0017,0.0022,-0.0025,0.0008,-0.0004,-0.0021,-0.0024,-0.0055,-0.0082,-0.0111,-0.0089,-0.0073,-0.0089,-0.0098,-0.008,-0.0031,-0.0025,-0.0019,-0.0022,-0.0016,-0.0091,-0.0092,-0.0092,-0.0093,0,0.0075,0.0094,0.0126,0.0143,0.0149,0.0182,0.0156,0.0157,0.0121,0.0104,0.011,0.006,0.0041,0.0039,-0.0004,0.0034,0.0013,-0.0023,-0.0059,-0.0002,-0.0009,-0.0004,-0.0084,-0.0086,-0.0087,-0.0089,0,0,0.0168,0.019,0.0198,0.0211,0.0208,0.0232,0.0255,0.0262,0.0279,0.0251,0.0274,0.0239,0.0195,0.018,0.0132,0.0127,0.0153,0.0077,0.0075,0.0079,0.0152,0.0136,0.0138,0.0126,0.0127,0.0128,0.0134,0,0.0247,0.0317,0.0306,0.0376,0.0399,0.0361,0.0392,0.0393,0.0378,0.0395,0.0338,0.035,0.0257,0.0254,0.0229,0.0176,0.0168,0.0155,0.0093,0.0092,0.0072,0.0144,0.0144,0.0149,0.0138,0.0138,0.0139,0,0.033,0.0364,0.0431,0.0466,0.0474,0.0506,0.0529,0.0557,0.0559,0.0549,0.0532,0.0488,0.0472,0.0386,0.0318,0.0315,0.0241,0.0193,0.0192,0.0147,0.0085,0.0088,0.0157,0.0038,0.0145,0.0145,0.0144,0,0.0385,0.0447,0.0501,0.0512,0.0546,0.0567,0.0589,0.0601,0.0646,0.0657,0.0697,0.0636,0.0632,0.0535,0.0413,0.0372,0.035,0.0274,0.0191,0.0189,0.0162,0.0156,0.0111,0.0232,0.0232,0.0232,0.0232,0,0.0453,0.0498,0.0529,0.0557,0.0634,0.0632,0.0717,0.0722,0.0771,0.0868,0.0784,0.0851,0.0671,0.0627,0.0486,0.0371,0.04,0.0225,0.0198,0.0196,0.0193,0.0064,-0.0026,0.0232,0.0232,0.0232,0.0232,0,0.0501,0.0517,0.0587,0.0637,0.0658,0.0716,0.0811,0.088,0.0909,0.1034,0.1055,0.1026,0.0974,0.0799,0.0658,0.0485,0.0293,0.0315,0.0328,0.0301,0.0079,-0.0006,-0.0096,-0.015,0.0215,0.0215,0.0215,0,0.053,0.0568,0.0649,0.0704,0.073,0.0817,0.0888,0.0941,0.1034,0.1168,0.1246,0.123,0.1256,0.1031,0.0729,0.049,0.0337,0.0308,0.0212,0.0093,-0.0021,-0.0087,-0.013,0.0216,0.0216,0.0216,0.0216,0,0.0593,0.0617,0.0678,0.0788,0.0871,0.0981,0.1089,0.1182,0.1285,0.142,0.158,0.1622,0.1394,0.1141,0.0775,0.0597,0.0214,0.0296,0.0174,-0.0014,-0.0087,-0.0159,0.0185,0.0215,0.0215,0.0215,0.0215,0.0215,0.0642,0.07,0.0779,0.0887,0.0989,0.1126,0.1234,0.1389,0.1579,0.1798,0.1831,0.1906,0.1493,0.0995,0.0745,0.0233,0.0209,0.0056,-0.0031,-0.0081,-0.0149,0.0199,0.0192,0.0192,0.0192,0.0192,0.0192,0,0.0706,0.0771,0.0875,0.1004,0.1124,0.1166,0.136,0.1495,0.1748,0.1939,0.2111,0.19,0.1469,0.0959,0.0265,-0.0052,-0.0168,-0.0212,-0.0308,-0.0335,-0.0017,-0.0033,-0.0088,-0.0088,-0.0088,-0.0088,-0.0088,-0.0088,0.0743,0.0842,0.0893,0.1086,0.1184,0.1357,0.1472,0.1697,0.185,0.2073,0.2071,0.2052,0.16,0.0528,-0.0179,-0.0327,-0.054,-0.0599,-0.069,-0.0487,-0.0468,-0.0451,-0.0485,-0.0633,-0.0634,-0.0961,-0.0964,-0.0967]}],[{"header":{"parameterUnit":"m.s-1","parameterCategory":2,"la1":30.2991,"la2":30.254,"lo1":-89.0895,"lo2":-89.0444,"dy":0.0017,"dx":0.0017,"nx":28,"ny":28,"refTime":"2025-01-12T09:00:00:Z","depth":"2","parameterNumber":2,"parameterNumberName":"U-component_of_CURRENTS"},"data":[0,0,0,0,0,0,0,0,0,0,0,0,0,0,0,0,0,0,0,0,0,0,0,0,0,0,0,0,0,0,0,0,0,0,0,0,0,0,0,0,0,0,0,0,0,0,0,0,0,0,0,0,0,0,0,0,0,0,0.2717,0.2717,0,0.2761,0.2762,0.2762,0.2773,0.2773,0.2773,0.2773,0.2784,0.2784,0.2784,0,0,0,0,0,0,0,0,0,0,0,0,0,0.2682,0.2682,0.2717,0.2717,0.2718,0.2761,0.2762,0.2762,0.2773,0.2773,0.2773,0.2773,0.2784,0.2784,0.2784,0,0,0,0,0,0,0,0,0,0,0,0,0,0.2706,0.2682,0.2716,0.2731,0.2733,0.2761,0.2762,0.2762,0.2773,0.2773,0.2773,0.2773,0.2784,0.2784,0.2784,0.2788,0,0,0.2786,0.2786,0,0,0,0,0,0,0,0,0.2704,0.2707,0.2728,0.273,0.2733,0.2764,0.2754,0.277,0.2773,0.2755,0.2773,0.2773,0.2776,0.2777,0.2782,0.2788,0.2788,0.2786,0.2786,0.2786,0.2786,0,0,0,0,0,0,0,0.2702,0.2705,0.2731,0.2729,0.2732,0.275,0.2753,0.2757,0.2762,0.2757,0.2758,0.2768,0.2777,0.2781,0.2782,0.2789,0.2786,0.2786,0.2786,0.2787,0.2835,0.2836,0,0,0,0,0,0,0.2701,0.2703,0.273,0.2733,0.2721,0.2751,0.2753,0.2752,0.2763,0.2766,0.2768,0.2768,0.2781,0.2782,0.2783,0.282,0.2786,0.2787,0.2787,0.2834,0.2836,0.2837,0,0,0,0,0,0,0.27,0.2702,0.2728,0.2722,0.2727,0.2751,0.2749,0.2753,0.2773,0.2773,0.2774,0.2787,0.2781,0.2782,0.2796,0.2819,0.2787,0.2787,0.2833,0.2835,0.2836,0.2873,0,0,0,0,0,0,0.2698,0.2701,0.2713,0.2722,0.2728,0.2748,0.275,0.2754,0.278,0.2781,0.2789,0.2789,0.2781,0.2795,0.2796,0.2819,0.2788,0.2832,0.2834,0.2836,0.2871,0.2876,0.288,0,0,0,0,0,0.2697,0.2704,0.2713,0.2717,0.2738,0.2748,0.2752,0.2768,0.2781,0.2787,0.2796,0.279,0.2808,0.2796,0.2797,0.2821,0.2831,0.2833,0.2835,0.2868,0.2875,0.288,0,0,0,0,0,0,0.2684,0.2706,0.2716,0.2727,0.2741,0.2751,0.2768,0.278,0.2793,0.2801,0.2798,0.2799,0.2825,0.2816,0.2803,0.2841,0.2821,0.2823,0.2846,0.2851,0.2856,0.286,0.2788,0,0,0,0,0,0.269,0.2704,0.2722,0.2729,0.2742,0.276,0.2774,0.2783,0.2793,0.2801,0.2808,0.2819,0.2833,0.2837,0.2846,0.286,0.2874,0.2878,0.2883,0.2887,0.2892,0.2942,0.2952,0.2844,0.2844,0.2844,0,0,0.2686,0.2701,0.2708,0.2729,0.2744,0.2762,0.2767,0.2788,0.2803,0.2799,0.2826,0.2839,0.2843,0.2864,0.2874,0.2859,0.2924,0.289,0.2893,0.2896,0.2945,0.2956,0.2965,0.2846,0.2846,0.2845,0,0,0.2678,0.27,0.2712,0.2729,0.2759,0.2773,0.2783,0.2806,0.282,0.2841,0.2853,0.2879,0.2889,0.2903,0.291,0.2947,0.2953,0.2952,0.2973,0.3022,0.3031,0.3039,0.3066,0.3077,0.2948,0.2948,0.2948,0,0.2678,0.2688,0.2715,0.2732,0.2748,0.278,0.2792,0.2815,0.2838,0.2858,0.2851,0.2907,0.2909,0.295,0.296,0.2959,0.2981,0.2949,0.3029,0.3037,0.3045,0.3071,0.3082,0.295,0.295,0.295,0.2949,0,0.2675,0.2694,0.2702,0.2736,0.2757,0.2771,0.2806,0.2834,0.2859,0.2885,0.2935,0.2946,0.298,0.2988,0.2981,0.3044,0.3039,0.3035,0.3014,0.3058,0.3082,0.3093,0.2953,0.2952,0.2952,0.2951,0,0,0.2647,0.2691,0.2696,0.2712,0.276,0.2771,0.2813,0.2856,0.2896,0.2927,0.2977,0.3007,0.3034,0.3044,0.3055,0.3088,0.3158,0.3084,0.3086,0.311,0.3259,0.3184,0.3188,0.3174,0.3176,0.3177,0.3251,0,0.2637,0.2658,0.2688,0.2714,0.2729,0.2776,0.2812,0.2862,0.2908,0.2968,0.3009,0.3061,0.3052,0.3077,0.3114,0.3158,0.3189,0.3137,0.3212,0.3214,0.3143,0.3199,0.2924,0.2961,0.3262,0.3264,0.3265,0,0.2623,0.2642,0.2658,0.2706,0.272,0.2745,0.2816,0.2854,0.2951,0.2994,0.3063,0.3105,0.3176,0.3155,0.3251,0.3223,0.3243,0.3263,0.3267,0.3191,0.316,0.2967,0.2969,0.3283,0.3282,0.328,0.3279,0,0.2578,0.262,0.2629,0.2644,0.2707,0.273,0.2771,0.2862,0.2914,0.3023,0.3082,0.3168,0.3226,0.3274,0.3321,0.3298,0.3418,0.3391,0.3339,0.3334,0.311,0.308,0.3453,0.3453,0.3453,0.3453,0.3452,0,0.2549,0.2558,0.261,0.2615,0.2647,0.2703,0.276,0.2823,0.2931,0.3001,0.3097,0.3166,0.3263,0.3338,0.3357,0.339,0.3453,0.3356,0.3356,0.3113,0.3085,0.3369,0.3358,0.3455,0.3455,0.3454,0.3454,0,0.2496,0.2525,0.2544,0.2604,0.2624,0.2649,0.2748,0.2796,0.291,0.3006,0.3047,0.3198,0.3295,0.3371,0.3461,0.3435,0.3468,0.3457,0.3157,0.312,0.3338,0.3328,0.3406,0.3404,0.3403,0.3402,0.3401,0,0.2466,0.247,0.2525,0.2538,0.2564,0.2616,0.2655,0.2771,0.2828,0.3009,0.3047,0.3193,0.3261,0.3379,0.3364,0.3386,0.3458,0.3135,0.3035,0.3345,0.3338,0.3331,0.3323,0.2751,0.2745,0.274,0.2736,0,0.242,0.2443,0.2461,0.2488,0.252,0.2554,0.2617,0.2654,0.2789,0.2869,0.2971,0.3044,0.3173,0.3081,0.3133,0.3104,0.3109,0.303,0.3449,0.2808,0.2734,0.2725,0.2738,0.269,0.2694,0.2698,0.27,0.2702,0.2389,0.2389,0.2415,0.2429,0.2459,0.2462,0.2451,0.252,0.257,0.2643,0.2794,0.2817,0.2872,0.2814,0.2732,0.2671,0.2887,0.2742,0.2755,0.2774,0.2688,0.2615,0.2531,0.2535,0.2538,0.254,0.2543,0,0.2339,0.2342,0.2354,0.2347,0.2324,0.2379,0.24,0.2355,0.234,0.2449,0.2503,0.2331,0.2288,0.2349,0.218,0.2179,0.2132,0.2088,0.1992,0.2041,0.2084,0.1959,0.1611,0.1608,0.1605,0.1602,0,0,0.2315,0.2291,0.2283,0.2206,0.22,0.2129,0.211,0.2058,0.2087,0.2039,0.2038,0.2224,0.2306,0.1941,0.1884,0.1718,0.1868,0.165,0.2403,0.2343,0.2382,0.2472,0.2337,0,0,0,0,0]},{"header":{"parameterUnit":"m.s-1","parameterCategory":2,"la1":30.2991,"la2":30.254,"lo1":-89.0895,"lo2":-89.0444,"dy":0.0017,"dx":0.0017,"nx":28,"ny":28,"refTime":"2025-01-12T09:00:00:Z","depth":"2","parameterNumber":3,"parameterNumberName":"V-component_of_CURRENTS"},"data":[0,0,0,0,0,0,0,0,0,0,0,0,0,0,0,0,0,0,0,0,0,0,0,0,0,0,0,0,0,0,0,0,0,0,0,0,0,0,0,0,0,0,0,0,0,0,0,0,0,0,0,0,0,0,0,0,0,0,0.0268,0.0268,0,0.0205,0.0204,0.0204,0.0176,0.0176,0.0176,0.0176,0.0121,0.012,0.0118,0,0,0,0,0,0,0,0,0,0,0,0,0,0.032,0.032,0.0268,0.0267,0.0267,0.0205,0.0204,0.0203,0.0176,0.0176,0.0176,0.0176,0.0122,0.012,0.0118,0,0,0,0,0,0,0,0,0,0,0,0,0,0.0281,0.0319,0.0268,0.0245,0.0243,0.0205,0.0204,0.0203,0.0176,0.0176,0.0176,0.0176,0.0123,0.012,0.0118,0.0101,0,0,0.0111,0.011,0,0,0,0,0,0,0,0,0.0284,0.028,0.025,0.0247,0.0244,0.0198,0.0203,0.0169,0.0176,0.0201,0.0176,0.0176,0.0148,0.0144,0.0131,0.0099,0.0096,0.0111,0.0109,0.0108,0.0108,0,0,0,0,0,0,0,0.0287,0.0282,0.0243,0.0249,0.0245,0.0223,0.0218,0.0196,0.0175,0.0199,0.0197,0.019,0.0146,0.0133,0.013,0.0095,0.0111,0.0109,0.0107,0.0107,0.0054,0.0054,0,0,0,0,0,0,0.0297,0.0285,0.0245,0.0241,0.0265,0.0222,0.0217,0.0213,0.0175,0.0169,0.019,0.0189,0.0137,0.0132,0.0128,0.0124,0.0108,0.0106,0.0105,0.0054,0.0054,0.0054,0,0,0,0,0,0,0.0298,0.0294,0.0248,0.0261,0.0254,0.0221,0.0217,0.0212,0.02,0.0167,0.0162,0.0184,0.0137,0.0131,0.0114,0.0121,0.0105,0.0103,0.0054,0.0054,0.0054,0.0106,0,0,0,0,0,0,0.03,0.0295,0.0293,0.0262,0.0254,0.0231,0.0217,0.021,0.0195,0.0193,0.0161,0.0156,0.0137,0.0118,0.0112,0.0118,0.0101,0.0054,0.0054,0.0054,0.0104,0.0107,0.011,0,0,0,0,0,0.0302,0.0302,0.0293,0.0288,0.0253,0.0231,0.0225,0.0202,0.0195,0.0191,0.0172,0.0157,0.0113,0.0116,0.0109,0.0115,0.0054,0.0054,0.0054,0.0102,0.0107,0.011,0,0,0,0,0,0,0.0322,0.0298,0.0288,0.028,0.026,0.0227,0.0219,0.0204,0.0184,0.0184,0.0156,0.0149,0.0136,0.0116,0.012,0.0098,0.0081,0.008,0.012,0.0124,0.0127,0.0148,0.0099,0,0,0,0,0,0.0326,0.0321,0.0294,0.0288,0.028,0.025,0.0237,0.0223,0.0202,0.0193,0.017,0.0147,0.0129,0.012,0.0098,0.0087,0.0069,0.0085,0.0088,0.0091,0.0103,0.0082,0.0085,0.0054,0.0054,0.0054,0,0,0.0332,0.0318,0.0315,0.0292,0.0274,0.0271,0.0243,0.0229,0.0228,0.019,0.0182,0.0155,0.0127,0.0116,0.0108,0.0102,0.0088,0.0091,0.0094,0.0104,0.0083,0.0086,0.0089,0.0054,0.0054,0.0054,0,0,0.0344,0.033,0.0331,0.0318,0.0296,0.0283,0.0282,0.0252,0.0241,0.0226,0.0202,0.0184,0.015,0.0137,0.0125,0.0132,0.0104,0.0119,0.0157,0.0137,0.014,0.0142,0.0118,0.0118,0.0125,0.0125,0.0125,0,0.035,0.0353,0.0327,0.0326,0.0326,0.0294,0.0303,0.0285,0.0254,0.0255,0.0231,0.0192,0.0163,0.0162,0.0162,0.0141,0.0122,0.0148,0.0143,0.0145,0.0146,0.0121,0.012,0.0127,0.0127,0.0127,0.0126,0,0.0363,0.0368,0.0369,0.0364,0.0359,0.0361,0.034,0.0331,0.0314,0.0302,0.0288,0.0244,0.0226,0.0208,0.0186,0.0185,0.0166,0.0148,0.0138,0.0153,0.0124,0.0123,0.0131,0.013,0.0129,0.0128,0,0,0.0376,0.0379,0.0381,0.0398,0.0385,0.0388,0.0387,0.0388,0.0407,0.036,0.0377,0.0328,0.0306,0.0291,0.0256,0.0235,0.0219,0.02,0.0198,0.0185,0.0172,0.0146,0.0141,0.02,0.02,0.02,0.0146,0,0.0398,0.0423,0.0414,0.0448,0.0465,0.0447,0.0458,0.0454,0.0445,0.045,0.0402,0.0399,0.0338,0.0333,0.03,0.0246,0.0217,0.0235,0.0152,0.0149,0.0132,0.0139,0.0164,0.0117,0.0144,0.0144,0.0144,0,0.0416,0.0437,0.0473,0.0511,0.0517,0.053,0.0561,0.0569,0.0564,0.0558,0.0538,0.0499,0.0463,0.0406,0.0315,0.033,0.0256,0.0203,0.02,0.016,0.0121,0.0106,0.0112,0.014,0.014,0.0141,0.0141,0,0.0451,0.0482,0.0522,0.053,0.0558,0.0575,0.0594,0.0603,0.0637,0.0632,0.0653,0.0591,0.0575,0.0472,0.0348,0.0335,0.0246,0.0213,0.0119,0.0115,0.0113,0.011,0.0148,0.0148,0.0148,0.0148,0.0148,0,0.0483,0.0515,0.0543,0.0564,0.0627,0.0626,0.0695,0.0699,0.0732,0.0792,0.0717,0.074,0.0591,0.0515,0.0385,0.025,0.0269,0.0131,0.0103,0.0129,0.0128,0.0131,0.0129,0.0146,0.0146,0.0147,0.0147,0,0.0512,0.0524,0.058,0.0624,0.0643,0.0691,0.0769,0.0825,0.0838,0.0911,0.0914,0.0861,0.0763,0.0601,0.0445,0.0314,0.0176,0.012,0.0157,0.0134,0.0048,0.005,0.0013,0.0012,0.0011,0.001,0.0009,0,0.0528,0.0557,0.063,0.0675,0.0697,0.0771,0.083,0.0873,0.0944,0.099,0.1034,0.0959,0.0923,0.0676,0.0441,0.0213,0.0176,0.0071,0.0045,0.0059,0.0036,0.004,0.0043,0.0057,0.0057,0.0057,0.0057,0,0.0568,0.0592,0.0643,0.0737,0.0807,0.0899,0.0986,0.1057,0.1119,0.1174,0.1222,0.1192,0.0967,0.0744,0.0426,0.0268,0.0107,0.0058,0.0074,0.0087,0.0096,0.0075,0.0078,0.0054,0.0055,0.0055,0.0055,0.0055,0.0603,0.065,0.0718,0.081,0.0897,0.101,0.1096,0.1194,0.1304,0.1382,0.1354,0.1316,0.1059,0.0662,0.0385,0.0093,0.0107,-0.0007,-0.0004,-0.0001,0.0013,0.002,-0.0034,-0.0034,-0.0035,-0.0035,-0.0035,0,0.0649,0.0702,0.0787,0.0896,0.0997,0.1038,0.1191,0.1274,0.1402,0.1464,0.1492,0.1244,0.0999,0.0702,0.0278,0.0019,0.0004,-0.0073,-0.0032,-0.0027,-0.0024,-0.0009,-0.0064,-0.0064,-0.0065,-0.0066,0,0,0.0674,0.0757,0.08,0.0957,0.1039,0.1178,0.1269,0.1382,0.1462,0.1508,0.149,0.1446,0.1095,0.0778,0.0429,0.0184,0.0136,0.0132,0.0184,0.0279,0.0285,0.0044,0.0074,0,0,0,0,0]}],[{"header":{"parameterUnit":"m.s-1","parameterCategory":2,"la1":30.2991,"la2":30.254,"lo1":-89.0895,"lo2":-89.0444,"dy":0.0017,"dx":0.0017,"nx":28,"ny":28,"refTime":"2025-01-12T09:00:00:Z","depth":"4","parameterNumber":2,"parameterNumberName":"U-component_of_CURRENTS"},"data":[0,0,0,0,0,0,0,0,0,0,0,0,0,0,0,0,0,0,0,0,0,0,0,0,0,0,0,0,0,0,0,0,0,0,0,0,0,0,0,0,0,0,0,0,0,0,0,0,0,0,0,0,0,0,0,0,0,0,0.1671,0.1671,0,0.1735,0.1735,0.1736,0.1791,0.1792,0.1793,0.1794,0.186,0.1861,0.1863,0,0,0,0,0,0,0,0,0,0,0,0,0,0.1589,0.159,0.1671,0.1672,0.1673,0.1735,0.1736,0.1736,0.1791,0.1792,0.1793,0.1794,0.186,0.1861,0.1863,0,0,0,0,0,0,0,0,0,0,0,0,0,0.1634,0.1591,0.167,0.1709,0.1713,0.1735,0.1736,0.1736,0.1791,0.1792,0.1793,0.1794,0.186,0.1861,0.1863,0.1849,0,0,0.1868,0.1868,0,0,0,0,0,0,0,0,0.1632,0.1637,0.1702,0.1706,0.1711,0.1758,0.1732,0.1775,0.1791,0.1759,0.1794,0.1795,0.1827,0.1831,0.1838,0.1852,0.1855,0.1868,0.1869,0.1869,0.187,0,0,0,0,0,0,0,0.1629,0.1635,0.1694,0.1703,0.1709,0.1721,0.1729,0.174,0.1784,0.1762,0.1767,0.1777,0.1829,0.1836,0.184,0.1856,0.1868,0.1869,0.187,0.1871,0.1976,0.1978,0,0,0,0,0,0,0.1624,0.1632,0.1692,0.1696,0.1676,0.1722,0.173,0.174,0.1784,0.1793,0.1776,0.1779,0.1833,0.1838,0.1842,0.1926,0.1869,0.1871,0.1872,0.1975,0.1977,0.1979,0,0,0,0,0,0,0.1622,0.1628,0.169,0.1667,0.1676,0.1722,0.1733,0.1741,0.1787,0.1795,0.1803,0.1819,0.1834,0.184,0.1887,0.1926,0.1871,0.1873,0.1972,0.1975,0.1978,0.2031,0,0,0,0,0,0,0.1619,0.1627,0.1649,0.1667,0.1677,0.1728,0.1732,0.1741,0.179,0.1796,0.1833,0.1839,0.1835,0.1884,0.1888,0.1927,0.1874,0.197,0.1974,0.1977,0.2027,0.2035,0.2043,0,0,0,0,0,0.1616,0.1635,0.165,0.1658,0.1701,0.173,0.1737,0.1772,0.1791,0.1817,0.1844,0.184,0.191,0.1887,0.1891,0.1931,0.1968,0.1973,0.1977,0.2023,0.2034,0.2042,0,0,0,0,0,0,0.1614,0.1643,0.166,0.1689,0.1721,0.1741,0.1773,0.1793,0.1834,0.1853,0.1857,0.1864,0.1923,0.1919,0.1894,0.1974,0.1941,0.1946,0.1975,0.1985,0.1993,0.1996,0.1875,0,0,0,0,0,0.1622,0.1648,0.1675,0.1705,0.1724,0.1756,0.178,0.1805,0.1835,0.1857,0.1881,0.191,0.1936,0.1955,0.1977,0.2014,0.2017,0.2046,0.2054,0.206,0.2067,0.2107,0.2118,0.1993,0.1993,0.1993,0,0,0.1631,0.1651,0.1669,0.1708,0.1737,0.1768,0.1774,0.1825,0.1858,0.1855,0.192,0.1942,0.1953,0.2,0.2026,0.2006,0.2098,0.2065,0.2071,0.2074,0.2112,0.2124,0.2135,0.1996,0.1995,0.1995,0,0,0.165,0.1682,0.1709,0.1738,0.179,0.1806,0.1829,0.1873,0.1906,0.1958,0.197,0.2016,0.2054,0.2071,0.208,0.2144,0.2141,0.2161,0.22,0.2239,0.2249,0.2258,0.2276,0.2286,0.2162,0.2162,0.2162,0,0.1664,0.1695,0.1724,0.1757,0.1784,0.1827,0.186,0.1896,0.1952,0.1982,0.1991,0.2071,0.2085,0.2134,0.2161,0.2162,0.2179,0.216,0.2248,0.2257,0.2266,0.2282,0.2292,0.2165,0.2164,0.2164,0.2164,0,0.1691,0.1731,0.1752,0.1803,0.1837,0.1878,0.1922,0.1972,0.2016,0.2048,0.2126,0.2148,0.2194,0.221,0.2205,0.2277,0.2268,0.2255,0.222,0.2282,0.2295,0.2305,0.2169,0.2168,0.2167,0.2166,0,0,0.168,0.1755,0.1768,0.1796,0.1866,0.1891,0.1958,0.2017,0.2068,0.2132,0.2191,0.2247,0.2276,0.229,0.23,0.2333,0.2405,0.2327,0.2328,0.2338,0.2488,0.2322,0.2317,0.2414,0.2416,0.2418,0.2471,0,0.1696,0.1752,0.179,0.1851,0.1879,0.1938,0.199,0.2057,0.2117,0.2188,0.2236,0.2302,0.2301,0.2337,0.2374,0.2404,0.2436,0.2391,0.2433,0.2434,0.2273,0.2324,0.2425,0.2479,0.2481,0.2483,0.2484,0,0.1702,0.1739,0.1797,0.1867,0.1888,0.1937,0.2026,0.2081,0.2185,0.2238,0.2316,0.2358,0.2435,0.2419,0.2504,0.2482,0.2496,0.2506,0.2508,0.234,0.2287,0.2407,0.2502,0.2501,0.2499,0.2498,0.2497,0,0.1658,0.1739,0.1783,0.1809,0.1899,0.1947,0.2004,0.2105,0.2163,0.2283,0.234,0.2429,0.249,0.2531,0.2567,0.2551,0.2642,0.2614,0.2475,0.2463,0.2573,0.2562,0.2669,0.2669,0.2669,0.2669,0.2669,0,0.1633,0.1674,0.1774,0.1797,0.1861,0.1934,0.2017,0.209,0.2203,0.2265,0.2371,0.2423,0.2527,0.2585,0.2598,0.2566,0.2672,0.2487,0.2468,0.2593,0.2585,0.2579,0.2568,0.2671,0.267,0.267,0.267,0,0.1574,0.1641,0.1698,0.1804,0.1842,0.1893,0.202,0.207,0.2194,0.2279,0.2323,0.2455,0.2521,0.259,0.266,0.2587,0.2581,0.2543,0.2678,0.2664,0.2367,0.2358,0.238,0.2375,0.237,0.2366,0.2363,0,0.1544,0.1571,0.1693,0.1729,0.1786,0.1873,0.1925,0.2056,0.2104,0.2267,0.2288,0.241,0.2474,0.2439,0.2528,0.2533,0.2504,0.2479,0.2411,0.2359,0.234,0.2338,0.2336,0.2356,0.2355,0.2353,0.2352,0,0.1486,0.155,0.1598,0.1673,0.1738,0.1791,0.1876,0.1896,0.203,0.2166,0.2192,0.2221,0.2288,0.2331,0.2358,0.2357,0.248,0.2431,0.2439,0.2375,0.233,0.2315,0.2318,0.2336,0.2339,0.234,0.2341,0,0.1452,0.147,0.1544,0.1593,0.1665,0.1672,0.1732,0.1773,0.1835,0.2001,0.2007,0.2132,0.226,0.2241,0.2266,0.2253,0.221,0.2124,0.2147,0.2166,0.207,0.198,0.1866,0,0,0,0,0,0.1403,0.1406,0.1451,0.1482,0.1544,0.1585,0.1676,0.1735,0.1861,0.1824,0.1906,0.1952,0.1981,0.2057,0.1999,0.2176,0.2225,0.2099,0.2139,0.2249,0.2267,0.2174,0,0,0,0,0,0,0.1368,0.1409,0.1413,0.1376,0.1377,0.1422,0.1474,0.1561,0.1546,0.1688,0.1719,0.1829,0.1899,0.1995,0.1963,0.1983,0.1965,0.2185,0.2179,0.2239,0.2255,0.227,0.218,0,0,0,0,0]},{"header":{"parameterUnit":"m.s-1","parameterCategory":2,"la1":30.2991,"la2":30.254,"lo1":-89.0895,"lo2":-89.0444,"dy":0.0017,"dx":0.0017,"nx":28,"ny":28,"refTime":"2025-01-12T09:00:00:Z","depth":"4","parameterNumber":3,"parameterNumberName":"V-component_of_CURRENTS"},"data":[0,0,0,0,0,0,0,0,0,0,0,0,0,0,0,0,0,0,0,0,0,0,0,0,0,0,0,0,0,0,0,0,0,0,0,0,0,0,0,0,0,0,0,0,0,0,0,0,0,0,0,0,0,0,0,0,0,0,0.0258,0.0258,0,0.022,0.0219,0.0219,0.0209,0.0209,0.021,0.021,0.0184,0.0183,0.0182,0,0,0,0,0,0,0,0,0,0,0,0,0,0.0286,0.0286,0.0258,0.0258,0.0257,0.022,0.0219,0.0219,0.0209,0.0209,0.021,0.021,0.0185,0.0183,0.0182,0,0,0,0,0,0,0,0,0,0,0,0,0,0.0263,0.0286,0.0258,0.0248,0.0247,0.022,0.0219,0.0218,0.0209,0.0209,0.021,0.021,0.0185,0.0184,0.0182,0.0166,0,0,0.0178,0.0177,0,0,0,0,0,0,0,0,0.0265,0.0262,0.025,0.0249,0.0247,0.022,0.0219,0.0201,0.0209,0.0223,0.021,0.021,0.0197,0.0195,0.0186,0.0164,0.0163,0.0178,0.0177,0.0176,0.0176,0,0,0,0,0,0,0,0.0266,0.0264,0.0243,0.025,0.0248,0.0233,0.023,0.0216,0.0209,0.0222,0.0221,0.0217,0.0197,0.0187,0.0186,0.0163,0.0178,0.0177,0.0176,0.0175,0.0142,0.0142,0,0,0,0,0,0,0.0273,0.0265,0.0244,0.0242,0.0257,0.0232,0.0229,0.0228,0.0208,0.0206,0.0217,0.0217,0.019,0.0187,0.0185,0.0187,0.0176,0.0175,0.0174,0.0142,0.0142,0.0142,0,0,0,0,0,0,0.0274,0.0272,0.0246,0.0253,0.0248,0.0231,0.023,0.0227,0.0224,0.0204,0.0202,0.0217,0.019,0.0187,0.0179,0.0186,0.0174,0.0173,0.0142,0.0142,0.0142,0.0178,0,0,0,0,0,0,0.0275,0.0272,0.0275,0.0253,0.0248,0.0236,0.0229,0.0226,0.022,0.022,0.0204,0.0201,0.019,0.0182,0.0178,0.0183,0.0172,0.0142,0.0142,0.0142,0.0177,0.0179,0.0181,0,0,0,0,0,0.0276,0.0277,0.0275,0.0273,0.0252,0.0236,0.0232,0.0221,0.022,0.0219,0.021,0.0202,0.0178,0.018,0.0176,0.0182,0.0142,0.0142,0.0142,0.0176,0.0179,0.0181,0,0,0,0,0,0,0.0288,0.0276,0.0273,0.027,0.0258,0.0235,0.0232,0.0224,0.0215,0.0218,0.0201,0.0198,0.0193,0.018,0.0183,0.017,0.0159,0.0158,0.0186,0.0188,0.019,0.0203,0.0171,0,0,0,0,0,0.0293,0.0294,0.0276,0.0275,0.027,0.0252,0.0245,0.0238,0.0225,0.0222,0.021,0.0198,0.0187,0.0183,0.0169,0.0163,0.0143,0.0163,0.0165,0.0167,0.0174,0.0147,0.0148,0.0142,0.0142,0.0142,0,0,0.0297,0.029,0.0291,0.0278,0.0268,0.0265,0.0249,0.0241,0.0242,0.022,0.022,0.0204,0.0186,0.018,0.0177,0.0173,0.0156,0.0167,0.0169,0.0174,0.0147,0.0148,0.0148,0.0142,0.0142,0.0142,0,0,0.0304,0.0301,0.0304,0.0297,0.0284,0.0276,0.0277,0.0258,0.0254,0.0247,0.0234,0.0224,0.0204,0.0195,0.0188,0.0192,0.0167,0.0186,0.021,0.0184,0.0185,0.0185,0.0154,0.0151,0.0189,0.0189,0.019,0,0.031,0.0314,0.0301,0.03,0.0302,0.0285,0.0291,0.028,0.0263,0.0265,0.0253,0.0229,0.0212,0.021,0.0211,0.0198,0.0177,0.0204,0.0188,0.0188,0.0187,0.0155,0.0151,0.0191,0.0191,0.0191,0.0191,0,0.0316,0.0324,0.0324,0.0325,0.0323,0.0325,0.0314,0.0311,0.0305,0.0297,0.0291,0.0262,0.0253,0.0241,0.0227,0.022,0.0203,0.0192,0.0184,0.019,0.0155,0.0151,0.0194,0.0193,0.0193,0.0192,0,0,0.0321,0.0329,0.0331,0.0346,0.0341,0.0344,0.0346,0.0349,0.0364,0.0335,0.0345,0.0316,0.0304,0.0293,0.0271,0.0247,0.022,0.0223,0.022,0.0197,0.0158,0.0138,0.013,0.0207,0.0207,0.0206,0.0133,0,0.0333,0.0351,0.0349,0.0376,0.0388,0.0382,0.0393,0.0393,0.039,0.0393,0.0359,0.036,0.0323,0.0323,0.0291,0.0243,0.0211,0.0241,0.0151,0.0148,0.0134,0.0126,0.0205,0.0129,0.0128,0.0127,0.0127,0,0.0339,0.0356,0.0384,0.0419,0.0424,0.0438,0.0466,0.0474,0.0471,0.0469,0.0454,0.0428,0.0394,0.0359,0.0272,0.0292,0.0229,0.0182,0.0178,0.0146,0.012,0.0122,0.0118,0.0119,0.012,0.012,0.0121,0,0.0356,0.0383,0.0415,0.0423,0.0452,0.0469,0.0489,0.05,0.0527,0.0522,0.0533,0.0483,0.0467,0.0379,0.0277,0.0276,0.0171,0.0157,0.0075,0.0072,0.0098,0.0098,0.0089,0.0089,0.0089,0.009,0.009,0,0.0369,0.0396,0.043,0.0446,0.0498,0.0505,0.0561,0.0567,0.0594,0.0631,0.058,0.0584,0.0472,0.0396,0.0292,0.0169,0.0179,0.0077,0.0053,0.0113,0.0116,0.0094,0.0095,0.0087,0.0087,0.0088,0.0088,0,0.0377,0.0396,0.0441,0.0486,0.0506,0.0545,0.0616,0.0658,0.0671,0.0712,0.0713,0.0663,0.0564,0.0435,0.0295,0.02,0.0079,0.003,0.0101,0.0082,-0.0009,-0.0004,-0.0066,-0.0067,-0.0068,-0.0069,-0.007,0,0.038,0.0404,0.0474,0.0512,0.0536,0.0601,0.0651,0.0694,0.0742,0.0758,0.0776,0.07,0.0643,0.0431,0.029,0.0083,0.0051,-0.0019,-0.0015,-0.0007,-0.0024,-0.0018,-0.0012,-0.0072,-0.0072,-0.0072,-0.0072,0,0.0392,0.0421,0.0462,0.0544,0.0605,0.0681,0.0752,0.0792,0.0837,0.0847,0.0828,0.0717,0.0603,0.0436,0.0273,0.0124,0.0024,-0.0031,-0.0029,-0.0027,-0.0015,-0.0029,-0.0023,-0.0076,-0.0076,-0.0075,-0.0075,0,0.0406,0.0439,0.05,0.0573,0.0655,0.0734,0.0773,0.0825,0.0869,0.0879,0.087,0.0742,0.0676,0.0457,0.0307,0.0157,0.0116,0.0062,0.0057,0.006,0.0113,0.0148,0.0115,0,0,0,0,0,0.0418,0.0458,0.0525,0.0607,0.0692,0.0743,0.0831,0.0865,0.0903,0.0895,0.0886,0.0775,0.0558,0.0473,0.032,0.0275,0.0082,0.0087,0.0016,-0.0098,-0.0093,-0.0054,0,0,0,0,0,0,0.0425,0.0486,0.0522,0.0625,0.0686,0.0783,0.0843,0.087,0.087,0.0879,0.0773,0.0722,0.0519,0.0643,0.0311,0.0267,0.0196,-0.0008,-0.0012,-0.01,-0.0096,-0.0092,-0.0051,0,0,0,0,0]}]]